Weather History for Buckhannon, WV

Change the Weather History Date:

Sunday, October 27, 2013

  Actual Average (KEKN) Record (KEKN)
Temperature  
Mean Temperature 45 °F 48 °F  
Max Temperature 53 °F 61 °F 80 °F (1984)
Min Temperature 37 °F 35 °F 12 °F (1962)
Degree Days  
Heating Degree Days 20 17  
Month to date heating degree days 359  
Since 1 July heating degree days 519  
Cooling Degree Days 0 0  
Month to date cooling degree days 0  
Year to date cooling degree days 471  
Moisture  
Dew Point 32 °F    
Average Humidity 63    
Maximum Humidity 81    
Minimum Humidity 44    
Precipitation  
Precipitation 0.00 in 0.10 in 1.37 in (1939)
Month to date precipitation 2.46  
Year to date precipitation 38.90  
Snow  
Snow 0.00 in - - ()
Month to date snowfall  
Since 1 September snowfall  
Snow Depth -    
Sea Level Pressure  
Sea Level Pressure 30.07 in    
Wind  
Wind Speed 6 mph (WSW)    
Max Wind Speed 12 mph    
Max Gust Speed 16 mph    
Visibility 10 miles    
Events      
T = Trace of Precipitation, MM = Missing Value Source: NWS Daily Summary

Daily Weather History Graph

Daily Weather History Graph

Search for Another Location

Airport:

Trip Planner

Search our weather history database for the weather conditions in past years. The results will help you decide how hot, cold, wet, or windy it might be!

Date:

Astronomy

Oct. 27, 2013 Rise Set
Actual Time 7:43 AM EDT 6:25 PM EDT
Civil Twilight 7:15 AM EDT 6:53 PM EDT
Nautical Twilight 6:44 AM EDT 7:24 PM EDT
Astronomical Twilight 6:13 AM EDT 7:55 PM EDT
Moon 12:42 AM EDT (10/27) 2:31 PM EDT (10/27)
Length of Visible Light 11h 37m
Length of Day
10h 42m
Last Quarter, 44% of the Moon is Illuminated
Oct 27
Last Quarter
Nov 3
New
Nov 10
First Quarter
Nov 17
Full
Nov 25
Last Quarter

Hourly Weather History & Observations

Time (EDT) Temp. Windchill Dew Point Humidity Pressure Visibility Wind Dir Wind Speed Gust Speed Precip Events Conditions
12:15 AM 44.6 °F 39.2 °F 28.4 °F 53% 30.04 in 10.0 mi SW 10.4 mph - N/A   Scattered Clouds
12:35 AM 46.4 °F 42.4 °F 28.4 °F 50% 30.03 in 10.0 mi SW 8.1 mph 16.1 mph N/A   Partly Cloudy
12:55 AM 46.4 °F 41.9 °F 28.4 °F 50% 30.03 in 10.0 mi SW 9.2 mph - N/A   Scattered Clouds
1:15 AM 44.6 °F 39.7 °F 28.4 °F 53% 30.03 in 10.0 mi SW 9.2 mph - N/A   Mostly Cloudy
1:35 AM 44.6 °F 39.7 °F 28.4 °F 53% 30.03 in 10.0 mi SW 9.2 mph - N/A   Mostly Cloudy
1:55 AM 44.6 °F 39.2 °F 30.2 °F 57% 30.03 in 10.0 mi SW 10.4 mph - N/A   Mostly Cloudy
2:15 AM 44.6 °F 40.7 °F 30.2 °F 57% 30.03 in 10.0 mi SW 6.9 mph - N/A   Mostly Cloudy
2:35 AM 44.6 °F 39.2 °F 30.2 °F 57% 30.03 in 10.0 mi WSW 10.4 mph - N/A   Mostly Cloudy
2:55 AM 44.6 °F 38.8 °F 30.2 °F 57% 30.03 in 10.0 mi WSW 11.5 mph - N/A   Scattered Clouds
3:15 AM 44.6 °F 39.2 °F 30.2 °F 57% 30.03 in 10.0 mi West 10.4 mph - N/A   Partly Cloudy
3:35 AM 42.8 °F 36.6 °F 32.0 °F 66% 30.02 in 10.0 mi WSW 11.5 mph - N/A   Clear
3:55 AM 42.8 °F 38.6 °F 32.0 °F 66% 30.02 in 10.0 mi WSW 6.9 mph - N/A   Clear
4:15 AM 42.8 °F 38.0 °F 32.0 °F 66% 30.02 in 10.0 mi WSW 8.1 mph - N/A   Partly Cloudy
4:35 AM 42.8 °F - 32.0 °F 66% 30.02 in 10.0 mi Calm Calm - N/A   Partly Cloudy
4:55 AM 42.8 °F 40.1 °F 32.0 °F 66% 30.02 in 10.0 mi SW 4.6 mph - N/A   Clear
5:15 AM 41.0 °F - 32.0 °F 70% 30.03 in 10.0 mi Calm Calm - N/A   Clear
5:35 AM 39.2 °F - 32.0 °F 75% 30.03 in 10.0 mi Calm Calm - N/A   Clear
5:55 AM 39.2 °F - 32.0 °F 75% 30.03 in 10.0 mi Calm Calm - N/A   Clear
6:15 AM 39.2 °F - 32.0 °F 75% 30.04 in 10.0 mi Calm Calm - N/A   Clear
6:35 AM 39.2 °F - 32.0 °F 75% 30.04 in 10.0 mi Calm Calm - N/A   Clear
6:55 AM 37.4 °F - 32.0 °F 81% 30.05 in 10.0 mi Calm Calm - N/A   Clear
7:15 AM 37.4 °F - 32.0 °F 81% 30.05 in 10.0 mi Calm Calm - N/A   Clear
7:35 AM 37.4 °F - 32.0 °F 81% 30.05 in 10.0 mi Calm Calm - N/A   Clear
7:55 AM 37.4 °F - 32.0 °F 81% 30.07 in 10.0 mi Calm Calm - N/A   Clear
8:15 AM 37.4 °F - 32.0 °F 81% 30.07 in 10.0 mi Calm Calm - N/A   Clear
8:35 AM 37.4 °F - 32.0 °F 81% 30.07 in 10.0 mi Calm Calm - N/A   Clear
8:55 AM 37.4 °F - 32.0 °F 81% 30.08 in 10.0 mi Calm Calm - N/A   Clear
9:15 AM 39.2 °F - 32.0 °F 75% 30.09 in 10.0 mi Calm Calm - N/A   Clear
9:35 AM 42.8 °F - 33.8 °F 70% 30.10 in 10.0 mi Calm Calm - N/A   Clear
9:55 AM 44.6 °F 39.7 °F 33.8 °F 66% 30.10 in 10.0 mi SW 9.2 mph - N/A   Clear
10:15 AM 44.6 °F 40.7 °F 32.0 °F 61% 30.11 in 10.0 mi WSW 6.9 mph - N/A   Clear
10:35 AM 44.6 °F 41.4 °F 33.8 °F 66% 30.10 in 10.0 mi WSW 5.8 mph - N/A   Clear
10:55 AM 46.4 °F 43.5 °F 33.8 °F 62% 30.11 in 10.0 mi SW 5.8 mph - N/A   Clear
11:15 AM 46.4 °F 43.5 °F 33.8 °F 62% 30.11 in 10.0 mi West 5.8 mph - N/A   Scattered Clouds
11:35 AM 48.2 °F - 35.6 °F 62% 30.11 in 10.0 mi SSW 6.9 mph - N/A   Partly Cloudy
11:55 AM 48.2 °F - 33.8 °F 58% 30.11 in 10.0 mi WSW 8.1 mph - N/A   Clear
12:15 PM 48.2 °F - 33.8 °F 58% 30.10 in 10.0 mi SSW 8.1 mph - N/A   Clear
12:35 PM 50.0 °F - 33.8 °F 54% 30.10 in 10.0 mi SSW 9.2 mph - N/A   Clear
12:55 PM 50.0 °F - 33.8 °F 54% 30.10 in 10.0 mi West 8.1 mph - N/A   Scattered Clouds
1:15 PM 51.8 °F - 33.8 °F 50% 30.09 in 10.0 mi West 5.8 mph - N/A   Mostly Cloudy
1:35 PM 51.8 °F - 33.8 °F 50% 30.09 in 10.0 mi NW 8.1 mph - N/A   Mostly Cloudy
1:55 PM 50.0 °F - 32.0 °F 50% 30.08 in 10.0 mi Calm Calm - N/A   Mostly Cloudy
2:15 PM 50.0 °F - 32.0 °F 50% 30.08 in 10.0 mi WNW 4.6 mph - N/A   Mostly Cloudy
2:35 PM 51.8 °F - 33.8 °F 50% 30.07 in 10.0 mi NNW 5.8 mph - N/A   Mostly Cloudy
2:55 PM 53.6 °F - 32.0 °F 44% 30.07 in 10.0 mi SW 8.1 mph - N/A   Mostly Cloudy
3:15 PM 51.8 °F - 32.0 °F 47% 30.07 in 10.0 mi SW 10.4 mph - N/A   Partly Cloudy
3:35 PM 51.8 °F - 33.8 °F 50% 30.07 in 10.0 mi WSW 6.9 mph - N/A   Partly Cloudy
3:55 PM 53.6 °F - 33.8 °F 47% 30.07 in 10.0 mi WSW 9.2 mph - N/A   Partly Cloudy
4:15 PM 53.6 °F - 33.8 °F 47% 30.07 in 10.0 mi SW 6.9 mph - N/A   Clear
4:35 PM 53.6 °F - 33.8 °F 47% 30.07 in 10.0 mi WSW 4.6 mph - N/A   Partly Cloudy
4:55 PM 53.6 °F - 32.0 °F 44% 30.07 in 10.0 mi WSW 5.8 mph - N/A   Partly Cloudy
5:15 PM 53.6 °F - 32.0 °F 44% 30.07 in 10.0 mi West 8.1 mph - N/A   Clear
5:35 PM 53.6 °F - 32.0 °F 44% 30.07 in 10.0 mi Calm Calm - N/A   Clear
5:55 PM 51.8 °F - 32.0 °F 47% 30.07 in 10.0 mi West 6.9 mph - N/A   Clear
6:35 PM 51.8 °F - 32.0 °F 47% 30.08 in 10.0 mi Calm Calm - N/A   Clear
6:55 PM 48.2 °F - 33.8 °F 58% 30.08 in 10.0 mi Calm Calm - N/A   Clear
7:15 PM 48.2 °F - 32.0 °F 54% 30.09 in 10.0 mi Calm Calm - N/A   Clear
7:35 PM 46.4 °F - 33.8 °F 62% 30.09 in 10.0 mi Calm Calm - N/A   Clear
7:55 PM 46.4 °F - 33.8 °F 62% 30.10 in 10.0 mi Calm Calm - N/A   Clear
8:15 PM 46.4 °F - 33.8 °F 62% 30.10 in 10.0 mi Calm Calm - N/A   Clear
8:35 PM 44.6 °F - 33.8 °F 66% 30.10 in 10.0 mi Calm Calm - N/A   Clear
8:55 PM 42.8 °F - 33.8 °F 70% 30.10 in 10.0 mi Calm Calm - N/A   Clear
9:15 PM 42.8 °F - 33.8 °F 70% 30.11 in 10.0 mi Calm Calm - N/A   Clear
9:35 PM 41.0 °F - 33.8 °F 76% 30.11 in 10.0 mi Calm Calm - N/A   Clear
9:55 PM 41.0 °F - 33.8 °F 76% 30.12 in 10.0 mi Calm Calm - N/A   Clear
10:15 PM 41.0 °F - 33.8 °F 76% 30.12 in 10.0 mi Calm Calm - N/A   Clear
10:35 PM 39.2 °F - 33.8 °F 81% 30.12 in 10.0 mi Calm Calm - N/A   Clear
10:55 PM 39.2 °F - 33.8 °F 81% 30.12 in 10.0 mi Calm Calm - N/A   Clear
11:15 PM 39.2 °F - 33.8 °F 81% 30.12 in 10.0 mi Calm Calm - N/A   Clear
11:35 PM 39.2 °F - 33.8 °F 81% 30.12 in 10.0 mi Calm Calm - N/A   Clear
11:55 PM 39.2 °F - 33.8 °F 81% 30.12 in 10.0 mi Calm Calm - N/A   Clear